Regional Weather Roundup
Issued by NWS

Home | Current Version | Previous Version | Graphics & Text | Print | Product List | Glossary On
Versions: 1 2 3 4 5 6 7 8 9 10 11 12 13 14 15 16 17 18 19 20 21 22 23 24 25 26 27 28 29 30 31 32 33 34 35 36 37 38 39 40 41 42 43 44 45 46 47 48 49 50
000
ASUS43 KOAX 242110
RWRNE

WEATHER ROUNDUP FOR NEBRASKA
NATIONAL WEATHER SERVICE OMAHA NE
400 PM CDT SAT JUN 24 2017

NOTES: SATELLITE DATA IS BEING USED TO AUGMENT CLOUD COVER ABOVE
       12000 FEET.
       "FAIR" INDICATES FEW OR NO CLOUDS BELOW 12,000 FEET WITH NO
       SIGNIFICANT WEATHER AND/OR OBSTRUCTIONS TO VISIBILITY.

  * THESE STATIONS DO NOT REPORT WEATHER SUCH AS RAIN...SNOW OR FOG.

NEZ001>004-019>022-054>056-242200-
NEBRASKA PANHANDLE

CITY           SKY/WX    TMP DP  RH WIND       PRES   REMARKS
SCOTTSBLUFF    MOSUNNY   76  35  22 MISG      30.28F
ALLIANCE       PTSUNNY   71  34  25 NE7       30.28S
CHADRON        PTSUNNY   74  33  22 VRB5      30.27F
GORDON         FAIR      71  33  25 NW7       30.28F
KIMBALL        CLOUDY    69  40  33 SE6       30.32S
SIDNEY         MOSUNNY   76  34  21 SE9       30.30F
$$

NEZ057>060-069>072-079>082-242200-
SOUTHWEST NEBRASKA

CITY           SKY/WX    TMP DP  RH WIND       PRES   REMARKS
NORTH PLATTE   CLOUDY    71  41  33 SW10      30.26F
IMPERIAL       CLOUDY    69  42  37 S9        30.28F
LEXINGTON      CLOUDY    71  41  33 SW13      30.26F
MCCOOK         CLOUDY    73  45  36 SE3       30.25F
OGALLALA       CLOUDY    77  33  20 CALM      30.27F
$$

NEZ005>010-023>029-035>040-094-242200-
NORTH CENTRAL NEBRASKA

CITY           SKY/WX    TMP DP  RH WIND       PRES   REMARKS
VALENTINE      MOSUNNY   79  26  14 NW18G26   30.22F
AINSWORTH      PTSUNNY   73  34  24 NW17G23   30.22F
BROKEN BOW     CLOUDY    75  37  25 N9        30.22S
O`NEILL        PTSUNNY   78  37  22 NW17G28   30.19S
ORD            PTSUNNY   74  32  21 NW17      30.20S
THEDFORD       CLOUDY    72  34  25 N20       30.26S
$$

NEZ041-046>049-061>064-073>077-083>087-242200-
SOUTH CENTRAL NEBRASKA

CITY           SKY/WX    TMP DP  RH WIND       PRES   REMARKS
GRAND ISLAND   SUNNY     81  37  20 W17G24    30.20F
AURORA         CLOUDY    78  40  25 W16G25    30.19F
HASTINGS       MOSUNNY   76  39  26 SW15G25   30.23F
HEBRON         CLOUDY    76  37  24 W9G16     30.22F
HOLDREGE       CLOUDY    72  38  29 SW8       30.26F
KEARNEY *      MOSUNNY   75  36  23 SW16G24   30.24F
YORK           MOSUNNY   77  37  24 W14G24    30.19F
$$

NEZ011>018-030>034-042>045-242200-
NORTHEAST NEBRASKA

CITY           SKY/WX    TMP DP  RH WIND       PRES   REMARKS
NORFOLK        MOSUNNY   76  33  21 W17G29    30.15F
ALBION         CLOUDY    77  33  20 NW15      30.19R
BLAIR          MOSUNNY   76  37  23 W16G22    30.15S
FREMONT        PTSUNNY   80  39  22 NW18G24   30.15F
TEKAMAH        PTSUNNY   79  34  19 NW14G26   30.13S
WAYNE          MOSUNNY   79  35  20 NW22G35   30.14F
$$

NEZ050>053-065>068-078-088>093-242200-
SOUTHEAST NEBRASKA

CITY           SKY/WX    TMP DP  RH WIND       PRES   REMARKS
LINCOLN        CLOUDY    80  40  23 W15G23    30.18F
OMAHA EPPLEY   MOSUNNY   79  36  21 W20       30.13F
BEATRICE       MOSUNNY   80  42  25 W20       30.19F
FALLS CITY     MOSUNNY   78  45  30 NW9       30.17F
NEBRASKA CITY  PTSUNNY   78  45  30 NW10G20   30.17F
PLATTSMOUTH    PTSUNNY   78  37  23 W15G22    30.16F
$$

NEZ044-045-051>053-067-242200-
OMAHA AREA

CITY           SKY/WX    TMP DP  RH WIND       PRES   REMARKS
OMAHA EPPLEY   MOSUNNY   79  36  21 W20       30.13F
BLAIR          MOSUNNY   76  37  23 W16G22    30.15S
FREMONT        PTSUNNY   80  39  22 NW18G24   30.15F
MILLARD        PTSUNNY   80  40  23 W14G22    30.14F
OFFUTT AFB     MOSUNNY   81  39  23 W13G24    30.14F
PLATTSMOUTH    PTSUNNY   78  37  23 W15G22    30.16F
WAHOO          FAIR      81  32  17 NW24G32   30.15F
$$




USA.gov is the U.S. government's official web portal to all federal, state and local government web resources and services.